Quincy, IL

2:02 PM CDT on September 25, 2017 (GMT -0500)
Quincy Regional-Baldwin

Weather History for KUIN - January, 2014

Change the Weather History Date:

Wednesday, January 22, 2014

  Actual Average Record
Temperature  
Mean Temperature 13 °F 26 °F  
Max Temperature 25 °F 34 °F 70 °F (1967)
Min Temperature 1 °F 18 °F -14 °F (1930)
Degree Days  
Heating Degree Days 52 39  
Month to date heating degree days 888 854  
Since 1 July heating degree days 3204 3045  
Cooling Degree Days 0 0  
Month to date cooling degree days 0 0  
Year to date cooling degree days 0 0  
Moisture  
Dew Point 5 °F    
Average Humidity 62    
Maximum Humidity 68    
Minimum Humidity 55    
Precipitation  
Precipitation T in 0.05 in 1.00 in (1965)
Month to date precipitation 0.64 1.10  
Year to date precipitation 0.64 1.10  
Sea Level Pressure  
Sea Level Pressure 30.16 in    
Wind  
Wind Speed 16 mph (WNW)    
Max Wind Speed 33 mph    
Max Gust Speed 39 mph    
Visibility 10 miles    
Events      
T = Trace of Precipitation, MM = Missing Value Source: NWS Daily Summary

Daily Weather History Graph

Daily Weather History Graph

Search for Another Location

Airport or City:

Trip Planner

Search our weather history database for the weather conditions in past years. The results will help you decide how hot, cold, wet, or windy it might be!

Date:

Astronomy

Jan. 22, 2014 Rise Set
Actual Time 7:20 AM CST 5:12 PM CST
Civil Twilight 6:51 AM CST 5:41 PM CST
Nautical Twilight 6:18 AM CST 6:14 PM CST
Astronomical Twilight 5:46 AM CST 6:46 PM CST
Moon 11:44 PM CST (1/22) 10:22 AM CST (1/22)
Length of Visible Light 10h 49m
Length of Day
9h 51m
Waning Gibbous, 65% of the Moon is Illuminated
Jan 22
Waning Gibbous
Jan 23
Last Quarter
Jan 30
New
Feb 6
First Quarter
Feb 14
Full

Hourly Weather History & Observations

Time (CST) Temp. Windchill Dew Point Humidity Pressure Visibility Wind Dir Wind Speed Gust Speed Precip Events Conditions
12:54 AM 10.9 °F 0.2 °F 1.0 °F 64% 30.19 in 10.0 mi SSE 6.9 mph - N/A   Overcast
1:54 AM 12.0 °F -1.3 °F 1.9 °F 64% 30.15 in 10.0 mi SSE 10.4 mph - N/A   Overcast
2:54 AM 12.0 °F 0.5 °F 1.9 °F 64% 30.12 in 10.0 mi South 8.1 mph - N/A   Overcast
3:54 AM 12.9 °F 1.6 °F 3.0 °F 65% 30.09 in 10.0 mi South 8.1 mph - N/A   Overcast
4:54 AM 12.9 °F 0.7 °F 3.9 °F 67% 30.08 in 10.0 mi South 9.2 mph - N/A   Overcast
5:54 AM 14.0 °F 0.5 °F 5.0 °F 67% 30.06 in 10.0 mi South 11.5 mph - N/A   Overcast
6:54 AM 15.1 °F 3.3 °F 6.1 °F 68% 30.06 in 10.0 mi SSW 9.2 mph - N/A   Overcast
7:54 AM 16.0 °F 3.6 °F 7.0 °F 68% 30.05 in 10.0 mi SW 10.4 mph - N/A   Overcast
8:54 AM 18.0 °F 7.7 °F 8.1 °F 65% 30.06 in 10.0 mi WSW 8.1 mph - N/A   Overcast
9:54 AM 19.9 °F 3.5 °F 10.9 °F 68% 30.08 in 9.0 mi NW 21.9 mph - N/A   Overcast
10:46 AM 21.0 °F 7.1 °F 12.9 °F 71% 30.06 in 9.0 mi NW 16.1 mph - 0.00 in   Overcast
10:54 AM 21.0 °F 5.0 °F 12.0 °F 68% 30.10 in 9.0 mi NW 21.9 mph 26.5 mph 0.00 in   Overcast
11:54 AM 21.9 °F 9.2 °F 12.0 °F 66% 30.08 in 10.0 mi WNW 13.8 mph - N/A   Overcast
12:21 PM 24.1 °F 11.0 °F 12.0 °F 60% 30.02 in 10.0 mi WNW 16.1 mph - N/A   Scattered Clouds
12:54 PM 25.0 °F 11.3 °F 12.9 °F 60% 30.07 in 10.0 mi WNW 18.4 mph - N/A   Scattered Clouds
1:01 PM 24.1 °F 10.6 °F 12.9 °F 62% 30.04 in 10.0 mi WNW 17.3 mph - N/A   Mostly Cloudy
1:15 PM 25.0 °F 12.2 °F 12.9 °F 60% 30.04 in 10.0 mi WNW 16.1 mph - N/A   Overcast
1:54 PM 25.0 °F 11.7 °F 12.9 °F 60% 30.07 in 10.0 mi NW 17.3 mph 27.6 mph N/A   Overcast
2:54 PM 25.0 °F 12.6 °F 12.0 °F 58% 30.09 in 10.0 mi WNW 15.0 mph 25.3 mph N/A   Overcast
3:54 PM 24.1 °F 10.1 °F 12.0 °F 60% 30.11 in 10.0 mi NW 18.4 mph - N/A   Overcast
4:54 PM 21.0 °F 6.6 °F 12.0 °F 68% 30.15 in 10.0 mi NNW 17.3 mph - N/A   Overcast
5:54 PM 19.9 °F 4.8 °F 8.1 °F 60% 30.17 in 10.0 mi NW 18.4 mph 27.6 mph N/A   Scattered Clouds
6:54 PM 18.0 °F 1.3 °F 8.1 °F 65% 30.21 in 10.0 mi NW 20.7 mph 26.5 mph N/A   Mostly Cloudy
7:35 PM 15.1 °F -4.0 °F 6.1 °F 68% 30.20 in 10.0 mi NNW 25.3 mph 29.9 mph N/A   Mostly Cloudy
7:51 PM 14.0 °F -5.1 °F 3.2 °F 62% 30.21 in 10.0 mi NNW 24.2 mph 31.1 mph N/A   Overcast
7:54 PM 12.9 °F -6.5 °F 3.0 °F 65% 30.26 in 10.0 mi NNW 24.2 mph - N/A   Overcast
8:05 PM 12.0 °F -6.9 °F 1.0 °F 61% 30.23 in 10.0 mi NNW 21.9 mph 33.4 mph N/A   Mostly Cloudy
8:54 PM 8.1 °F -15.5 °F -5.1 °F 55% 30.30 in 10.0 mi NNW 32.2 mph 39.1 mph N/A   Clear
9:54 PM 5.0 °F -17.9 °F -7.1 °F 58% 30.36 in 10.0 mi NW 26.5 mph 36.8 mph N/A   Partly Cloudy
10:34 PM 3.0 °F -18.3 °F -8.0 °F 60% 30.35 in 10.0 mi NNW 20.7 mph 31.1 mph N/A   Mostly Cloudy
10:41 PM 3.0 °F -17.8 °F -8.0 °F 60% 30.36 in 10.0 mi NNW 19.6 mph 31.1 mph N/A   Scattered Clouds
10:54 PM 3.0 °F -18.3 °F -8.0 °F 60% 30.41 in 10.0 mi NNW 20.7 mph - N/A   Mostly Cloudy
11:54 PM 1.0 °F -21.4 °F -9.0 °F 63% 30.45 in 10.0 mi NNW 21.9 mph 31.1 mph N/A   Overcast